Regional Weather Roundup
Issued by NWS

Home | Current Version | Previous Version | Text Only | Print | Product List | Glossary Off
Versions: 1 2 3 4 5 6 7 8 9 10 11 12 13 14 15 16 17 18 19 20 21 22 23 24 25 26 27 28 29 30 31 32 33 34 35 36 37 38 39 40 41 42 43 44 45 46 47 48 49 50

000
ASUS43 KFSD 181802
RWRSD

WEATHER ROUNDUP FOR SOUTH DAKOTA
NATIONAL WEATHER SERVICE SIOUX FALLS SD
1200 PM CST SUN FEB 18 2018

NOTE: "FAIR" INDICATES FEW OR NO CLOUDS BELOW 12,000 FEET WITH NO
SIGNIFICANT WEATHER AND/OR OBSTRUCTIONS TO VISIBILITY.


SDZ001>005-009-010-012>017-181900-
NORTHWEST AND NORTH CENTRAL SOUTH DAKOTA

CITY           SKY/WX    TMP DP  RH WIND       PRES   REMARKS
BUFFALO          N/A     10   3  73 N17       29.65R WCI  -8
FAITH            N/A     14  12  92 N28       29.63R WCI  -6
MOBRIDGE       CLOUDY    19  14  81 N23G30    29.62R WCI   2
$$

SDZ012>016-024>037-041>051-057-063-072>074-181900-
SOUTHWEST AND SOUTH CENTRAL SOUTH DAKOTA

CITY           SKY/WX    TMP DP  RH WIND       PRES   REMARKS
RAPID CTY ARPT CLOUDY    21  15  78 N44G54    29.56R WCI   0
PIERRE         CLOUDY    26  22  84 NW15      29.58R WCI  14
CUSTER         CLOUDY    34  20  56 E5        29.47S WCI  30
ELLSWORTH AFB  FLURRIES  21  16  82 NW36G51   29.57  WCI   1
PHILIP         CLOUDY    24  19  81 NW18G26   29.63R WCI  10
PINE RIDGE     FAIR      40  30  67 NE12      29.55R
SPEARFISH      LGT SNOW  16  12  86 NW15G26   29.65R VSB 1   WCI   1
WINNER         FAIR      34  26  72 NW17      29.57R WCI  23
$$

SDZ004>011-016>023-039-040-181900-
NORTHEAST SOUTH DAKOTA

CITY           SKY/WX    TMP DP  RH WIND       PRES   REMARKS
ABERDEEN       PTSUNNY   28  19  69 N20       29.58R WCI  15
WATERTOWN      CLOUDY    39  27  62 SW12      29.48R
BROOKINGS      CLOUDY    40  28  62 S18G25    29.50S
SISSETON         N/A     31  24  75 N7        29.56R WCI  24
$$

SDZ017-020-022-023-036>040-048>070-181900-
SOUTHEAST SOUTH DAKOTA

CITY           SKY/WX    TMP DP  RH WIND       PRES   REMARKS
SIOUX FALLS    CLOUDY    42  28  57 S21G33    29.56S
HURON          CLOUDY    38  28  67 NW12      29.51R
CHAMBERLAIN    CLOUDY    34  28  80 NW13      29.55R WCI  25
MITCHELL       CLOUDY    43  28  55 SW10      29.52R
$$

ABBREVIATIONS USED IN REMARKS
   TC - TEMPERATURE IN CELSIUS
  WCI - WIND CHILL INDEX
   HX - HEAT INDEX
  VSB - VISIBILITY





USA.gov is the U.S. government's official web portal to all federal, state and local government web resources and services.